Location: Caltech
(34.1382°N, 118.1253°W)
Time: 06:18:36
(UTC-07:00)

Oscar 11 - Visible Passes

Search period start: 05 July 2015 00:00
Search period end: 15 July 2015 00:00
Orbit: 615 x 628 km, 97.8° (Epoch: 04 July)

Date Brightness Start Highest point End Pass type
(mag) Time Alt. Az. Time Alt. Az. Time Alt. Az.
05 Jul 7.3 21:59:56 31° S 22:01:51 66° W 22:06:09 10° NNW visible
06 Jul 9.0 20:41:29 10° ESE 20:43:46 15° ENE 20:46:14 10° NNE visible
06 Jul 8.1 22:17:53 27° SSW 22:19:39 39° W 22:23:41 10° NNW visible
07 Jul 8.4 20:58:39 13° ESE 21:01:24 23° ENE 21:04:50 10° NNE visible
07 Jul 8.9 22:35:51 20° SW 22:37:30 24° W 22:40:59 10° NW visible
08 Jul 7.8 21:16:37 20° SE 21:19:04 36° ENE 21:23:02 10° N visible
08 Jul 9.4 22:53:49 13° WSW 22:55:25 15° W 22:57:50 10° WNW visible
09 Jul 7.1 21:34:35 27° SE 21:36:44 60° ENE 21:41:01 10° N visible
10 Jul 7.0 21:52:33 33° S 21:54:28 82° WSW 21:58:48 10° NNW visible
11 Jul 9.1 20:34:51 10° E 20:36:27 12° ENE 20:38:17 10° NE visible
11 Jul 7.8 22:10:32 31° SSW 22:12:14 48° W 22:16:26 10° NNW visible
12 Jul 8.7 20:51:18 11° ESE 20:54:04 19° ENE 20:57:11 10° NNE visible
12 Jul 8.6 22:28:30 23° SW 22:30:04 29° W 22:33:49 10° NW visible
13 Jul 8.1 21:09:16 17° ESE 21:11:42 30° ENE 21:15:31 10° N visible
13 Jul 9.2 22:46:28 16° WSW 22:47:57 18° W 22:50:53 10° NW visible
14 Jul 7.4 21:27:14 25° SE 21:29:23 49° ENE 21:33:34 10° N visible
14 Jul 9.7 23:04:30 10° WSW 23:05:55 11° W 23:07:02 10° WNW visible
